This is the latest recevied weather packets stored in our database for station/object KE0PRS. If no packets are shown the sender has not sent any weather packets the latest 10 day(s).
| Time | Temp. | Humidity | Pressure | Rain* | Wind** | Luminosity | Snow |
|---|---|---|---|---|---|---|---|
| 1777575189 | 12.78° C | 84% | 1020.4 hPa | 0 mm | - | 366 W/m² | - |
| 1777574885 | 12.22° C | 84% | 1020.4 hPa | 0 mm | - | 333 W/m² | - |
| 1777574583 | 12.22° C | 84% | 1020.4 hPa | 0 mm | - | 322 W/m² | - |
| 1777574279 | 12.22° C | 85% | 1020.6 hPa | 0 mm | - | 286 W/m² | - |
| 1777573974 | 12.22° C | 85% | 1020.6 hPa | 0 mm | - | 243 W/m² | - |
| 1777573669 | 12.22° C | 86% | 1020.7 hPa | 0 mm | - | 242 W/m² | - |
| 1777573366 | 12.22° C | 87% | 1020.8 hPa | 0 mm | - | 213 W/m² | - |
| 1777573062 | 11.67° C | 85% | 1020.6 hPa | 0 mm | - | 209 W/m² | - |
| 1777572759 | 11.67° C | 85% | 1021 hPa | 0 mm | - | 212 W/m² | - |
| 1777572459 | 11.67° C | 85% | 1020.7 hPa | 0 mm | - | 194 W/m² | - |
| 1777572155 | 11.67° C | 87% | 1021 hPa | 0 mm | - | 196 W/m² | - |
| 1777571851 | 11.67° C | 87% | 1020.9 hPa | 0 mm | - | 204 W/m² | - |
| 1777571546 | 11.67° C | 87% | 1020.8 hPa | 0 mm | - | 195 W/m² | - |
| 1777571243 | 11.67° C | 88% | 1020.9 hPa | 0 mm | - | 193 W/m² | - |
| 1777570940 | 11.67° C | 88% | 1021 hPa | 0 mm | - | 226 W/m² | - |
| 1777570635 | 11.67° C | 89% | 1021.1 hPa | 0 mm | - | 227 W/m² | - |
| 1777570332 | 11.67° C | 89% | 1021.4 hPa | 0 mm | - | 215 W/m² | - |
| 1777570028 | 11.11° C | 89% | 1021.3 hPa | 0 mm | - | 246 W/m² | - |
| 1777569724 | 11.67° C | 91% | 1021.3 hPa | 0 mm | - | 275 W/m² | - |
| 1777569419 | 11.11° C | 90% | 1021.3 hPa | 0 mm | - | 295 W/m² | - |
| 1777569116 | 11.11° C | 91% | 1021.3 hPa | 0 mm | - | 264 W/m² | - |
| 1777568814 | 10.56° C | 91% | 1021.3 hPa | 0 mm | - | 271 W/m² | - |
| 1777568511 | 10.56° C | 91% | 1021.5 hPa | 0 mm | - | 246 W/m² | - |
| 1777568207 | 10.56° C | 91% | 1021.4 hPa | 0 mm | - | 233 W/m² | - |
| 1777567904 | 10.56° C | 91% | 1021.6 hPa | 0 mm | - | 216 W/m² | - |
* Rain latest hour (hover to see other rain measurements)
** Current wind speed in m/s (hover to see current wind gust speed)